STARLINK-1723, 46333

Orbit data source: Space-Track

STARLINK-1723, 46333 is a payload satellite owned by SpaceX/Seattle (US) in LEO that was launched on Thu, 03 Sep 2020 UTC via an FALCON 9 launch vehicle from the Air Force Eastern Test Range (AFETR). Payload-class satellites include a variety of spacecraft equipped with specific instruments for various scientific and technological missions. These include communications satellites like Starlink; space stations such as the ISS; scientific satellites like the Hubble; Earth observation satellites from companies like Planet Labs, Umbra, and HawkEye 360; GPS; miniature CubeSats for education and research; and military/defense satellites.

Loading next visibility...
Identifier
46333, 2020-062J
Orbit
LEO
Country
Flag of USUS
Related business
Manufacturer
SpaceX/Seattle
Mission
Partially operational Commercial Communications
Bus & Motor
STARLINK, Unknown motor
Mass
260 kg wet, ~248 kg dry
Launch date (UTC)
2020-09-03 (5 years ago)
Launch vehicle
FALCON 9
Launch site
Air Force Eastern Test Range (AFETR)
Object type
Payload
Rocket body
Debris
Shape & HBR
Box + 1 Pan, 10.1 m
Radar Cross Section
13.562 m², Large (>1 m²)

Expand to show TLE details & history
Last TLE update: 6 hours ago

TLE from 6 hours ago
0 STARLINK-1723
1 46333U 20062J   25312.84208950  .00109603  00000-0  26439-2 0  9993
2 46333  53.0522 196.2212 0002015 108.7389 251.3833 15.40376861286131
Epoch: 2025-11-08T20:12Z
TLE epoch observation values (Epoch: 2025-11-08T20:12:36.532Z)
Latitude
-0.00008°
Longitude
-155.19698°
Altitude
446.327 km
Speed
7.645 km/s
True Right ascension
13h 04m 53s
True Declination
0° 00' 00"
Sunlit
Object was in daylight at epoch
Visualization orbit readout
Latitude
Unknown
Longitude
Unknown
Altitude
Unknown
Speed
Unknown
Apparent Right ascension
Unknown
Apparent Declination
Unknown
Sunlit
N/A
Visualization observer readout
Local Sidereal Time
22:22:44
Azimuth
Unknown
Elevation
Unknown
Doppler factor
Unknown
Orbital elements
Apogee altitude
446.646 km
Perigee altitude
443.896 km
Semi-major axis
6,823.408 km
Eccentricity
0.0002
Inclination
53.0522°
RAAN
196.2212°
Arg. of periapsis
108.7389°
True anomaly
251.36142°
Mean anomaly
251.3833°
Eccentric anomaly
251.37236°
Mean motion
3.85071 °/min
Orbital period
93.49 mins
BSTAR
0.0026439
Loading maneuver chart data...
Computing Atmospheric mass density...

Documentation

Showing up to 5 results
|